Flag for Turkmenistan Weather past 2 weeks in Ashgabat, Turkmenistan

Now
68 °F

Sunny.


Feels Like: 68 °F
Forecast: 38 / 61 °F
Wind: 6 mph from Northeast

Location: Ashgabat

Current Time: Dec 26, 2014 at 3:59:17 PM

Latest Report: Dec 26, 2014 at 3:00 PM


Visibility: N/A

Pressure: 30.12 "Hg

Humidity: 17%

Dew point: 21 °F

Location of AshgabatLocation

Historic Weather in Ashgabat — Graph

°F

Ashgabat temperature yesterday

Maximum temperature yesterday: 61 °F (at 3:00 PM)
Minimum temperature yesterday: 39 °F (at 12:00 AM)
Average temperature yesterday: 50 °F

Past Weeks' High & Low Weather Summary

 TemperatureHumidityPressure
High68 °F (Dec 26, 2:00 PM)100% (Dec 17, 11:00 PM)30.45 "Hg (Dec 17, 11:00 PM)
Low28 °F (Dec 12, 7:30 AM)17% (Dec 26, 1:00 PM)29.92 "Hg (Dec 23, 12:00 AM)
Average43 °F77%30.20 "Hg
* Reported Dec 11 3:00 PM — Dec 26 3:00 PM, Ashgabat, Weather by CustomWeather, © 2014

Note: Actual official high and low records may vary slightly from our data, if they occured in-between our weather recording intervals... More about our weather records

Advertising

Ashgabat weather history for previous 24 hours

 ConditionsComfort  
Time TempWeatherWind HumidityBarometerVisibility
3:00 PM
Dec 26
68 °FSunny.6 mph17%30.12 "HgN/A
2:00 PM68 °FSunny.1 mph18%30.15 "HgN/A
1:00 PM66 °FSunny.No wind17%30.15 "HgN/A
12:00 PM63 °FSunny.3 mph27%30.18 "HgN/A
11:00 AM57 °FSunny.3 mph41%30.21 "HgN/A
10:00 AM50 °FSunny.3 mph50%30.21 "HgN/A
9:00 AM43 °FClear.No wind57%30.18 "HgN/A
8:00 AM41 °FClear.3 mph61%30.18 "HgN/A
7:00 AM39 °FClear.6 mph70%30.18 "HgN/A
6:00 AM39 °FClear.3 mph70%30.18 "HgN/A
5:00 AM36 °FClear.3 mph81%30.21 "HgN/A
4:00 AM39 °FClear.1 mph75%30.21 "HgN/A
3:00 AM41 °FClear.1 mph66%30.21 "HgN/A
2:00 AM43 °FClear.3 mph66%30.24 "HgN/A
1:00 AM43 °FClear.3 mph66%30.27 "HgN/A
12:00 AM41 °FClear.1 mph76%30.27 "Hg6 mi
11:00 PM
Dec 25
45 °FClear.1 mph61%30.30 "Hg6 mi
10:00 PM46 °FClear.1 mph62%30.30 "Hg4 mi
9:00 PM48 °FClear.3 mph58%30.33 "HgN/A
8:00 PM48 °FClear.6 mph58%30.30 "HgN/A
7:00 PM50 °FClear.6 mph50%30.30 "Hg4 mi
6:30 PM52 °FSunny.6 mph47%30.30 "Hg4 mi
6:00 PM54 °FSunny.3 mph44%30.30 "HgN/A
5:30 PM57 °FSunny.3 mph36%30.30 "HgN/A
5:00 PM59 °FSunny.6 mph34%30.27 "HgN/A
4:30 PM61 °FSunny.No wind31%30.27 "HgN/A
4:00 PM61 °FSunny.1 mph29%30.27 "HgN/A
3:30 PM61 °FSunny.1 mph31%30.27 "HgN/A
3:00 PM61 °FSunny.1 mph31%30.27 "HgN/A
Weather by CustomWeather, © 2014

See weather overviewHow to use our weather pages